Погода в Форту-Шевченко

Казахстан     44°30′26″N   50°15′46″E
темп.,
°C
ветер,
м/с
пор.,
м/с
влажн.,
%
обл.,
%
осадки,
мм/ч
давл.,
гПа
погр.,
м
25 февраля, чт
чт2523:00−12ссз78730 0.0 1039570
02:00−12ссз56710 0.0 1040451
05:00−12ссз34720 0.0 1040388
08:00−12с337519 0.0 1040299
11:00−11всв226628 0.0 1041288
14:00−9юв12590 0.0 1040442
17:00−6ююв457512 0.0 1038678
20:00−5юв6886100 0.1 1036455
26 февраля, пт
пт2623:00−2ююв71092100 0.3 1034519
02:00−1ю7992100 0.5 1031562
05:00+1юз5780100 0.6 1028548
08:00+1зюз4686100 0.0 1026539
11:00+1з7874100 0.1 1025563
14:00+1з81085100 0.0 1024552
17:00+3з81194100 0.2 1022462
20:00+3зсз91292100 0.4 1022462
27 февраля, сб
сб2723:00+3зсз91295100 0.8 1022439
02:00+3зсз81196100 0.7 1021354
05:00+3з71095100 0.9 1020366
08:00+3з71095100 0.1 1020334
11:00+4з7992100 0.2 1021414
14:00+4зюз7109099 0.0 1019422
17:00+5зюз81287100 0.0 1018428
20:00+5зюз71187100 0.0 1017302
28 февраля, вс
вс2823:00+5юз71187100 0.2 1017264
02:00+5юз71287100 0.2 1016289
05:00+5юз6988100 0.4 1015185
08:00+5зюз578799 0.1 1014117
11:00+5зюз568699 0.1 1015142
14:00+6з4481100 0.0 1015198
17:00+4зсз4692100 0.2 1015294
20:00+3ссз3493100 0.0 1015190
1 марта, пн
пн123:00+3сз3492100 0.1 1017236
02:00+3сз3490100 0.0 1017239
05:00+3ссз3390100 0.0 1018172
08:00+2сз3391100 0.0 1019143
11:00+3ссз5685100 0.0 1022337
14:00+3ссз5675100 0.0 1023444
17:00+3ссз5773100 0.0 1024459
20:00+2сз458421 0.0 1026291